Volver al catálogo

COSMOS 700 DEB

ActivoPO
NORAD 23308·DEBRIS·🇷🇺 Russia

Lanzado Dec 26, 1974 desde Plesetsk Cosmodrome

Loading…

Próximos Pases (próximas 24 horas)

TLE

ActualizadoSource: Space-Track

Época: Sep 14, 2026, 07:03 UTC

1 23308U 74105C   26257.29442069  .00000804  00000-0  57283-3 0  9991
2 23308  82.9444 198.4380 0016945 260.4796 251.7722 13.96207446689260

Sigue COSMOS 700 DEB en tiempo real con AllMySat

Download on the App Store